[[{"header":{"parameterUnit":"m.s-1","parameterCategory":1,"la1":30.2991,"la2":30.254,"lo1":-89.0895,"lo2":-89.0444,"dy":0.0017,"dx":0.0017,"nx":28,"ny":28,"refTime":"2024-08-29T09:00:00:Z","depth":0,"parameterNumber":2,"parameterNumberName":"U-component_of_WINDS"},"data":[0,0,0,0,0,0,0,0,0,0,0,0,0,0,0,0,0,0,0,0,0,0,0,0,0,0,0,0,0,0,0,0,0,0,0,0,0,0,0,0,0,0,0,0,0,0,0,0,0,0,0,0,0,0,0,0,0,0,-1.6328,-1.6327,0,-1.6255,-1.6254,-1.6253,-1.6176,-1.6175,-1.6174,-1.6173,-1.6103,-1.6102,-1.6101,0,0,0,0,0,0,0,0,0,0,0,0,0,-1.6404,-1.6403,-1.6328,-1.6327,-1.6326,-1.6255,-1.6254,-1.6253,-1.6176,-1.6175,-1.6173,-1.6172,-1.6103,-1.6102,-1.6101,0,0,0,0,0,0,0,0,0,0,0,0,0,-1.6355,-1.6403,-1.6328,-1.6279,-1.6274,-1.6255,-1.6254,-1.6253,-1.6176,-1.6175,-1.6173,-1.6171,-1.6103,-1.6102,-1.6101,-1.6126,0,0,-1.6097,-1.6097,0,0,0,0,0,0,0,0,-1.6358,-1.6353,-1.6287,-1.6282,-1.6276,-1.6223,-1.6255,-1.6211,-1.6177,-1.6214,-1.6173,-1.6171,-1.6144,-1.614,-1.613,-1.6123,-1.612,-1.6097,-1.6096,-1.6096,-1.6095,0,0,0,0,0,0,0,-1.6362,-1.6355,-1.6299,-1.6286,-1.628,-1.6262,-1.6253,-1.6247,-1.6189,-1.621,-1.6204,-1.6197,-1.6141,-1.6131,-1.6128,-1.6119,-1.6097,-1.6096,-1.6095,-1.6095,-1.613,-1.6132,0,0,0,0,0,0,-1.6372,-1.6359,-1.6302,-1.6297,-1.6314,-1.6262,-1.6252,-1.6242,-1.6189,-1.6179,-1.6198,-1.6193,-1.6134,-1.6129,-1.6125,-1.6151,-1.6096,-1.6094,-1.6094,-1.6129,-1.6131,-1.6132,0,0,0,0,0,0,-1.6374,-1.6368,-1.6304,-1.6326,-1.6317,-1.6262,-1.6251,-1.6241,-1.6231,-1.618,-1.617,-1.6198,-1.6133,-1.6127,-1.6126,-1.6148,-1.6094,-1.6093,-1.6127,-1.6129,-1.6132,-1.6204,0,0,0,0,0,0,-1.6376,-1.6369,-1.6377,-1.6327,-1.6316,-1.6306,-1.6253,-1.6241,-1.6229,-1.6222,-1.6177,-1.6168,-1.6131,-1.6129,-1.6125,-1.6145,-1.6092,-1.6124,-1.6128,-1.6131,-1.62,-1.6209,-1.6217,0,0,0,0,0,-1.6379,-1.6401,-1.6378,-1.6371,-1.6325,-1.6307,-1.6301,-1.6256,-1.6231,-1.6239,-1.6206,-1.617,-1.6146,-1.6129,-1.6125,-1.6144,-1.6123,-1.6127,-1.6131,-1.6196,-1.6207,-1.6217,0,0,0,0,0,0,-1.6457,-1.6394,-1.6367,-1.6373,-1.6346,-1.6294,-1.6303,-1.627,-1.6251,-1.6245,-1.6192,-1.6182,-1.6189,-1.6166,-1.6149,-1.6167,-1.6129,-1.6132,-1.618,-1.6191,-1.6199,-1.6204,-1.6091,0,0,0,0,0,-1.6474,-1.6464,-1.641,-1.6421,-1.6408,-1.6359,-1.6349,-1.6317,-1.6287,-1.6276,-1.6243,-1.6217,-1.6204,-1.6196,-1.6181,-1.6196,-1.6186,-1.6208,-1.6216,-1.6224,-1.6227,-1.6234,-1.6243,-1.6145,-1.6145,-1.6145,0,0,-1.6511,-1.6475,-1.6472,-1.6435,-1.641,-1.6402,-1.6349,-1.6343,-1.6337,-1.6276,-1.6273,-1.6248,-1.6216,-1.6223,-1.6225,-1.6205,-1.6252,-1.6228,-1.6235,-1.6234,-1.6238,-1.6248,-1.6256,-1.6148,-1.6147,-1.6147,0,0,-1.6573,-1.6545,-1.655,-1.6526,-1.6489,-1.6455,-1.6457,-1.641,-1.6391,-1.6387,-1.6341,-1.6334,-1.6312,-1.629,-1.6277,-1.6331,-1.6297,-1.6328,-1.6373,-1.638,-1.6387,-1.6394,-1.6414,-1.6421,-1.6331,-1.6332,-1.6332,0,-1.6623,-1.6607,-1.6558,-1.6554,-1.6539,-1.6482,-1.6488,-1.6468,-1.6428,-1.642,-1.6398,-1.6369,-1.6343,-1.6345,-1.6358,-1.6349,-1.635,-1.6332,-1.639,-1.6396,-1.6402,-1.642,-1.6427,-1.6336,-1.6335,-1.6335,-1.6334,0,-1.6671,-1.6661,-1.6671,-1.6632,-1.6619,-1.662,-1.6572,-1.6564,-1.6534,-1.6503,-1.65,-1.6467,-1.6444,-1.6443,-1.6413,-1.6441,-1.6429,-1.64,-1.6361,-1.6416,-1.6432,-1.6438,-1.6341,-1.634,-1.6339,-1.6338,0,0,-1.678,-1.6713,-1.6718,-1.6699,-1.6654,-1.6646,-1.6645,-1.6621,-1.6616,-1.6591,-1.659,-1.6573,-1.6544,-1.6529,-1.6497,-1.6503,-1.6548,-1.6472,-1.6471,-1.6488,-1.6577,-1.66,-1.6608,-1.6526,-1.6527,-1.6528,-1.658,0,-1.6834,-1.6827,-1.6782,-1.6789,-1.6779,-1.6725,-1.6724,-1.6697,-1.6669,-1.6658,-1.6627,-1.6616,-1.658,-1.657,-1.6574,-1.6542,-1.6566,-1.6538,-1.6525,-1.6525,-1.6534,-1.6617,-1.664,-1.6691,-1.6586,-1.6587,-1.6588,0,-1.6896,-1.6873,-1.6878,-1.6833,-1.6827,-1.6827,-1.6802,-1.6791,-1.676,-1.6739,-1.6722,-1.6685,-1.6683,-1.6647,-1.6643,-1.6625,-1.6617,-1.6601,-1.6602,-1.6599,-1.6559,-1.6616,-1.6706,-1.6714,-1.6597,-1.6596,-1.6595,0,-1.6975,-1.6945,-1.6944,-1.6931,-1.6877,-1.6879,-1.6857,-1.6824,-1.6812,-1.6791,-1.6783,-1.6762,-1.6751,-1.6736,-1.6695,-1.6673,-1.6697,-1.6657,-1.668,-1.6681,-1.6687,-1.6688,-1.6778,-1.6683,-1.6683,-1.6683,-1.6683,0,-1.704,-1.7045,-1.6979,-1.6979,-1.6983,-1.6933,-1.6939,-1.6912,-1.6883,-1.6878,-1.683,-1.6827,-1.6773,-1.6763,-1.6732,-1.6733,-1.6729,-1.6713,-1.6704,-1.6717,-1.6719,-1.6711,-1.6706,-1.6685,-1.6684,-1.6684,-1.6684,0,-1.7129,-1.7084,-1.708,-1.7029,-1.7017,-1.7023,-1.698,-1.6978,-1.6947,-1.6941,-1.6936,-1.6888,-1.6874,-1.6832,-1.6808,-1.6787,-1.6798,-1.6782,-1.6809,-1.6803,-1.6828,-1.6826,-1.6916,-1.6926,-1.6825,-1.6826,-1.6827,0,-1.7173,-1.7176,-1.7125,-1.7117,-1.7097,-1.7085,-1.7072,-1.7023,-1.7012,-1.6977,-1.698,-1.6962,-1.6945,-1.6926,-1.6889,-1.6871,-1.6854,-1.6887,-1.6851,-1.6864,-1.6855,-1.6855,-1.6855,-1.6895,-1.6896,-1.6897,-1.6898,0,-1.7257,-1.7234,-1.7217,-1.7193,-1.7179,-1.7158,-1.7134,-1.7131,-1.7075,-1.7066,-1.705,-1.7037,-1.7012,-1.6995,-1.6971,-1.695,-1.6916,-1.691,-1.6914,-1.6927,-1.6942,-1.6934,-1.683,-1.6908,-1.6907,-1.6906,-1.6906,-1.6905,-1.7324,-1.7324,-1.7288,-1.7271,-1.7247,-1.7226,-1.7222,-1.7189,-1.7175,-1.7149,-1.7122,-1.711,-1.7079,-1.7042,-1.7024,-1.7015,-1.6996,-1.7003,-1.7004,-1.7006,-1.7012,-1.6943,-1.701,-1.701,-1.701,-1.701,-1.7009,0,-1.7406,-1.738,-1.7364,-1.7331,-1.7318,-1.7285,-1.7257,-1.7248,-1.7238,-1.7211,-1.7195,-1.7177,-1.7161,-1.7123,-1.7103,-1.7103,-1.7087,-1.71,-1.7099,-1.7095,-1.703,-1.7028,-1.7113,-1.7113,-1.7113,-1.7113,-1.7113,-1.7113,-1.7446,-1.7444,-1.7418,-1.7403,-1.7378,-1.7364,-1.7351,-1.7331,-1.731,-1.7292,-1.7277,-1.7252,-1.7221,-1.7198,-1.7182,-1.7172,-1.7167,-1.7185,-1.717,-1.711,-1.71,-1.709,-1.7088,-1.7184,-1.7185,-1.7235,-1.7236,-1.7236]},{"header":{"parameterUnit":"m.s-1","parameterCategory":1,"la1":30.2991,"la2":30.254,"lo1":-89.0895,"lo2":-89.0444,"dy":0.0017,"dx":0.0017,"nx":28,"ny":28,"refTime":"2024-08-29T09:00:00:Z","depth":0,"parameterNumber":3,"parameterNumberName":"V-component_of_WINDS"},"data":[0,0,0,0,0,0,0,0,0,0,0,0,0,0,0,0,0,0,0,0,0,0,0,0,0,0,0,0,0,0,0,0,0,0,0,0,0,0,0,0,0,0,0,0,0,0,0,0,0,0,0,0,0,0,0,0,0,0,4.1094,4.1094,0,4.1137,4.1138,4.1138,4.1136,4.1135,4.1134,4.1134,4.1174,4.1176,4.1178,0,0,0,0,0,0,0,0,0,0,0,0,0,4.1006,4.1007,4.1094,4.1094,4.1095,4.1137,4.1138,4.1138,4.1136,4.1135,4.1134,4.1133,4.1174,4.1176,4.1178,0,0,0,0,0,0,0,0,0,0,0,0,0,4.1046,4.1008,4.1094,4.1099,4.11,4.1137,4.1138,4.1138,4.1136,4.1135,4.1134,4.1133,4.1173,4.1175,4.1178,4.1212,0,0,4.1186,4.1187,0,0,0,0,0,0,0,0,4.1044,4.1049,4.1097,4.1098,4.11,4.113,4.1121,4.1163,4.1136,4.1122,4.1134,4.1133,4.116,4.1164,4.1174,4.1214,4.1215,4.1186,4.1187,4.1188,4.1189,0,0,0,0,0,0,0,4.1041,4.1047,4.1111,4.1098,4.1099,4.1098,4.1103,4.1129,4.1145,4.1123,4.1123,4.1128,4.116,4.1171,4.1174,4.1216,4.1186,4.1188,4.1189,4.119,4.1286,4.1287,0,0,0,0,0,0,4.1037,4.1045,4.1109,4.1112,4.1069,4.11,4.1105,4.1121,4.1145,4.1148,4.1129,4.1128,4.1167,4.1172,4.1176,4.1217,4.1188,4.1191,4.1192,4.1285,4.1286,4.1287,0,0,0,0,0,0,4.1035,4.1043,4.1108,4.1079,4.1087,4.1103,4.112,4.1122,4.1133,4.115,4.1152,4.1137,4.1167,4.1172,4.1203,4.1218,4.1192,4.1194,4.1284,4.1285,4.1287,4.1299,0,0,0,0,0,0,4.1033,4.1042,4.1056,4.1079,4.1088,4.1135,4.1121,4.1124,4.1138,4.1137,4.1158,4.1161,4.1167,4.1199,4.1206,4.1221,4.1196,4.1282,4.1284,4.1286,4.1297,4.13,4.1303,0,0,0,0,0,4.103,4.1057,4.1057,4.1065,4.1106,4.1136,4.1141,4.1148,4.1139,4.1152,4.1163,4.116,4.1216,4.1203,4.121,4.1226,4.1281,4.1284,4.1286,4.1295,4.13,4.1303,0,0,0,0,0,0,4.1034,4.106,4.106,4.1096,4.1114,4.1135,4.1152,4.1152,4.1172,4.117,4.1177,4.1182,4.1213,4.1223,4.1207,4.126,4.1247,4.1251,4.1252,4.1256,4.1259,4.1256,4.1198,0,0,0,0,0,4.1039,4.1063,4.1084,4.1113,4.1122,4.1136,4.1149,4.1153,4.1172,4.1179,4.1192,4.1209,4.123,4.1244,4.1265,4.1299,4.1303,4.1314,4.1317,4.132,4.1322,4.134,4.1345,4.1295,4.1295,4.1295,0,0,4.1049,4.1067,4.1081,4.1114,4.1129,4.1152,4.1142,4.1167,4.1183,4.1182,4.1212,4.1223,4.1242,4.1275,4.129,4.1284,4.1337,4.1323,4.1324,4.1326,4.1343,4.1348,4.1352,4.1297,4.1296,4.1296,0,0,4.108,4.1096,4.1122,4.1137,4.116,4.1169,4.1176,4.1198,4.1205,4.1236,4.1235,4.1255,4.1292,4.1306,4.1317,4.1355,4.1352,4.1362,4.1378,4.1395,4.1399,4.1403,4.1415,4.1419,4.1365,4.1365,4.1365,0,4.109,4.1125,4.1135,4.116,4.1175,4.1177,4.1202,4.1216,4.1244,4.1253,4.1247,4.1294,4.1307,4.1342,4.1352,4.1362,4.1368,4.1358,4.1398,4.1402,4.1405,4.1417,4.1422,4.1365,4.1365,4.1365,4.1365,0,4.1136,4.1161,4.1179,4.1207,4.1224,4.1249,4.1261,4.1277,4.128,4.129,4.1321,4.1337,4.1361,4.137,4.1373,4.1406,4.1402,4.1397,4.1384,4.1411,4.1422,4.1426,4.1367,4.1366,4.1366,4.1366,0,0,4.1168,4.1203,4.1209,4.1222,4.1248,4.1267,4.1292,4.1317,4.133,4.1349,4.137,4.1402,4.1398,4.1411,4.1416,4.1431,4.1459,4.1424,4.1425,4.1429,4.1496,4.1498,4.1503,4.1459,4.1459,4.146,4.1494,0,4.12,4.1247,4.1257,4.1296,4.1318,4.1321,4.1343,4.1361,4.1371,4.1391,4.1402,4.1424,4.1417,4.1425,4.1441,4.1452,4.1472,4.145,4.1476,4.1477,4.1469,4.1509,4.1512,4.1542,4.1498,4.1499,4.1499,0,4.1244,4.1266,4.1308,4.1331,4.1341,4.1361,4.1384,4.1404,4.1424,4.143,4.1446,4.1449,4.1475,4.1462,4.1497,4.1482,4.1493,4.1501,4.1502,4.1503,4.1488,4.151,4.1552,4.1556,4.1507,4.1506,4.1505,0,4.1262,4.1302,4.1332,4.1344,4.1372,4.1386,4.1398,4.1417,4.1432,4.1452,4.1461,4.1484,4.1496,4.1513,4.1522,4.1513,4.1556,4.1544,4.156,4.156,4.1568,4.1567,4.1611,4.1578,4.1578,4.1578,4.1578,0,4.1296,4.1321,4.1341,4.1359,4.1388,4.1399,4.1426,4.1438,4.1455,4.1475,4.1479,4.1498,4.1509,4.1529,4.1536,4.1563,4.1569,4.1574,4.1575,4.1573,4.1572,4.1579,4.1576,4.1579,4.1579,4.1579,4.1578,0,4.132,4.1335,4.1368,4.1393,4.1399,4.1419,4.1439,4.1457,4.1468,4.1493,4.1499,4.1516,4.1539,4.1551,4.158,4.1585,4.1615,4.1616,4.1608,4.1608,4.1623,4.1621,4.1672,4.1679,4.1643,4.1643,4.1643,0,4.134,4.136,4.1387,4.1402,4.1415,4.1438,4.1453,4.1465,4.148,4.1505,4.1519,4.1544,4.1564,4.1601,4.1615,4.1637,4.1637,4.1654,4.164,4.1637,4.1636,4.1634,4.1635,4.1655,4.1656,4.1656,4.1656,0,4.1374,4.1381,4.1403,4.1428,4.1447,4.1467,4.1486,4.1497,4.1512,4.1529,4.1554,4.157,4.16,4.1624,4.1647,4.1658,4.1659,4.1661,4.1665,4.1662,4.1657,4.1659,4.1613,4.1659,4.1659,4.1658,4.1658,4.1658,4.1396,4.1414,4.1436,4.1461,4.1477,4.1496,4.1513,4.1527,4.1548,4.1575,4.1581,4.1607,4.1626,4.1658,4.167,4.169,4.1686,4.1693,4.1695,4.1696,4.1696,4.1655,4.1695,4.1695,4.1695,4.1695,4.1695,0,4.1429,4.1444,4.1467,4.1495,4.1514,4.1516,4.1538,4.1553,4.1577,4.1596,4.1616,4.1644,4.1667,4.1684,4.1707,4.172,4.1721,4.1725,4.1723,4.1726,4.1699,4.1692,4.1724,4.1724,4.1724,4.1724,4.1724,4.1724,4.1449,4.1478,4.1488,4.1525,4.154,4.1566,4.1579,4.1595,4.161,4.1643,4.1662,4.1673,4.1691,4.1716,4.1737,4.1741,4.1748,4.1753,4.1757,4.1731,4.1728,4.1725,4.1718,4.1755,4.1755,4.1782,4.1782,4.1782]}]]